Terminal Aerodrome Forecast
Issued by NWS

Home | Current Version | Previous Version | Text Only | Print | Product List | Glossary On
Versions: 1 2 3 4 5 6 7 8 9 10 11 12 13 14 15 16 17 18 19 20
000
FTUS42 KMHX 201100
TAFISO
TAF
KISO 201127Z 2012/2112 02012G19KT P6SM -DZ SCT015 BKN050
     FM201700 02015G25KT P6SM OVC030
     FM210500 36008G15KT P6SM BKN020
      AMD LTD TO CLD VIS AND WIND=

USA.gov is the U.S. government's official web portal to all federal, state and local government web resources and services.